Flag for Argentina Weather past 2 weeks in Tucumán, Tucumán, Argentina

Now
68 °F

Passing clouds.


Feels Like: 68 °F
Forecast: N/A
Wind: 3 mph from South

Location: Tucuman Aerodrome


UV Index: N/A

Visibility: 5 mi


Pressure: 30.09 "Hg

Humidity: 83%

Dew point: 63 °F

Location of TucumánLocation

Historic Weather in Tucumán

°F

Tucumán temperature yesterday

Maximum temperature yesterday: 70 °F (at 5:00 PM)
Minimum temperature yesterday: 63 °F (at 5:00 AM)
Average temperature yesterday: 65 °F

Past Weeks' High & Low Weather Summary

 TemperatureHumidityPressure
High81 °F (Apr 16, 3:00 PM)100% (Apr 22, 9:00 AM)30.39 "Hg (Apr 22, 9:00 AM)
Low46 °F (Apr 14, 6:00 AM)39% (Apr 9, 4:00 PM)29.74 "Hg (Apr 16, 2:00 PM)
Average66 °F78%30.03 "Hg
* Reported Apr 8 7:00 PM — Apr 23 7:00 PM, Tucumán, Weather by CustomWeather, © 2014

Note: Actual official high and low records may vary slightly from our data, if they occured in-between our weather recording intervals... More about our weather records

Advertising

Historic Weather Conditions — Data for Previous 24 hours

 ConditionsComfort  
Time TempWeatherWind HumidityBarometerVisibility
7:00 PM
Apr 23
72 °FPassing clouds.3 mph78%30.07 "Hg4 mi
6:00 PM73 °FPassing clouds.7 mph69%30.07 "Hg5 mi
5:00 PM75 °FScattered clouds.8 mph65%30.07 "Hg5 mi
4:00 PM75 °FScattered clouds.8 mph69%30.07 "Hg5 mi
3:00 PM73 °FScattered clouds.9 mph69%30.09 "Hg6 mi
2:00 PM73 °FScattered clouds.6 mph69%30.09 "Hg6 mi
1:00 PM72 °FScattered clouds.6 mph73%30.12 "Hg6 mi
12:00 PM70 °FScattered clouds.5 mph78%30.15 "Hg6 mi
11:00 AM66 °FBroken clouds.2 mph88%30.15 "Hg4 mi
10:00 AM64 °FBroken clouds.2 mph94%30.15 "Hg4 mi
9:00 AM63 °FBroken clouds.2 mph94%30.15 "Hg4 mi
8:00 AM63 °FFog.5 mph94%30.12 "Hg2 mi
7:00 AM63 °FOvercast.5 mph94%30.12 "Hg4 mi
6:00 AM63 °FOvercast.No wind94%30.09 "Hg4 mi
5:00 AM61 °FOvercast.5 mph94%30.09 "Hg4 mi
4:00 AM61 °FPassing clouds.5 mph94%30.09 "Hg4 mi
3:00 AM61 °FFog.No wind94%30.12 "Hg0 mi
1:00 AM63 °FPassing clouds.No wind94%30.12 "Hg5 mi
12:00 AM63 °FPassing clouds.5 mph94%30.12 "Hg5 mi
11:00 PM
Apr 22
64 °FFog.No wind94%30.15 "Hg3 mi
10:00 PM64 °FPartly cloudy.5 mph94%30.15 "Hg2 mi
9:00 PM63 °FPartly cloudy.5 mph100%30.12 "Hg2 mi
8:00 PM64 °FPassing clouds.8 mph94%30.12 "Hg2 mi
Weather by CustomWeather, © 2014

See weather overview